Theta_e
349 348 343 336 320 320 313 315 323 321 321 328 330 327 324 327 321 316 341 345 348 349 351 350 352 350 350 350 348 347 348 349 349 348 349 347 347 346 346 347 347 347 347 347 347 348 350 349 350
345 341 337 329 316 310 312 318 318 323 326 330 329 328 325 321 329 334 337 346 349 349 352 351 350 349 348 346 346 345 344 343 342 342 341 339 339 339 338 338 336 336 336 339 341 342 343 344 346
341 338 328 322 316 310 312 319 322 325 329 328 326 331 327 323 332 335 343 347 349 347 350 349 347 346 345 342 342 342 341 340 339 338 337 335 335 335 334 333 333 334 334 333 333 334 335 337 339
337 333 329 317 313 316 318 322 323 325 327 328 328 323 332 339 335 339 345 347 346 346 347 346 344 344 342 339 339 338 338 338 337 336 334 333 333 333 333 332 332 333 333 334 332 331 331 331 332
335 329 319 315 314 318 322 324 326 323 324 325 326 323 326 337 342 343 344 344 344 344 345 342 342 340 339 338 336 336 335 336 334 332 331 330 330 330 331 331 332 332 332 332 333 333 333 333 333
325 326 315 311 314 319 324 326 326 325 325 325 324 324 327 337 339 341 342 342 343 341 340 340 341 339 337 336 335 334 333 332 330 330 331 331 330 330 332 333 332 333 333 333 333 333 333 333 333
322 321 314 315 314 316 322 328 325 324 323 323 328 321 327 332 339 341 342 342 341 338 337 338 338 338 336 335 334 333 333 331 330 330 332 330 332 332 332 333 332 334 332 333 332 333 332 332 332
327 324 315 316 314 314 324 326 326 325 324 331 330 321 325 331 339 341 340 339 336 334 333 334 336 335 335 333 334 333 333 332 330 331 331 328 328 329 330 329 331 334 332 331 331 330 331 331 330
327 318 314 314 315 317 326 324 330 331 327 328 329 329 331 338 340 337 335 334 330 330 331 332 330 332 335 333 332 331 334 333 333 331 328 325 327 327 325 329 329 329 329 328 330 329 328 327 324
322 318 316 320 320 319 325 325 328 326 325 325 326 332 336 337 335 332 330 327 325 327 329 329 326 326 330 331 328 331 328 335 335 332 329 329 328 329 325 324 326 326 329 326 324 324 323 323 323
320 316 320 321 323 323 325 326 330 325 322 326 326 329 333 334 333 330 327 325 325 328 330 325 326 330 328 324 327 330 332 334 333 332 330 330 328 328 326 325 325 326 325 326 324 323 323 324 325
317 320 321 322 324 323 324 328 326 327 326 329 330 333 333 332 330 328 327 326 325 326 329 326 323 325 326 327 327 328 327 328 328 331 330 329 326 326 326 324 325 326 327 325 325 323 324 325 325
318 321 322 322 324 324 327 325 325 325 325 327 332 331 331 331 331 331 331 329 328 327 329 324 326 327 326 324 328 329 329 328 327 327 328 328 326 326 325 325 324 324 326 325 324 323 324 324 324
320 320 320 321 325 327 324 324 325 326 323 326 329 328 329 330 330 330 328 329 326 327 326 326 326 329 328 328 326 330 330 330 327 326 327 327 326 326 325 325 324 324 324 324 324 322 322 321 322
320 317 319 320 325 324 327 320 322 327 323 323 326 327 327 328 330 329 330 329 327 326 326 327 325 326 327 327 329 329 330 328 328 328 330 329 327 327 327 325 324 324 325 325 324 323 323 322 321
316 316 313 316 323 325 324 314 324 325 322 322 323 325 325 327 328 330 329 326 326 326 326 327 326 329 331 331 330 331 332 330 330 330 329 330 326 328 327 324 324 325 325 323 322 322 320 321 320
312 307 309 312 320 323 322 317 323 325 322 322 321 322 323 326 327 328 327 326 326 327 327 327 328 327 329 333 332 332 332 330 329 331 331 330 325 324 326 325 325 327 324 323 322 322 322 319 320
304 306 308 309 315 320 318 318 322 325 322 322 321 321 320 321 324 328 327 327 328 328 328 328 328 329 329 328 330 329 331 331 331 331 330 329 327 327 327 326 326 326 323 323 322 322 322 320 320
309 306 306 310 316 316 315 316 319 325 323 322 323 322 322 322 325 326 327 328 328 329 329 330 329 329 327 327 327 327 328 330 330 331 330 329 329 329 328 326 326 326 324 324 324 322 321 320 321
308 307 307 311 315 315 313 314 319 324 323 324 325 324 324 325 326 326 328 329 329 330 330 330 330 331 331 329 330 330 330 330 330 330 331 330 328 327 326 325 322 325 323 325 324 323 320 319 321
308 307 308 308 314 316 314 312 316 321 324 325 326 327 326 326 326 327 329 330 331 330 331 331 332 333 332 332 332 331 330 328 326 326 325 327 327 326 326 325 321 324 323 320 325 324 322 317 320
304 311 311 311 309 303 313 301 311 317 319 322 324 326 326 327 328 329 330 331 332 332 332 332 332 334 334 334 331 330 326 320 323 324 325 325 325 324 324 324 324 324 323 322 321 322 323 321 317
306 311 310 310 308 306 307 305 309 312 314 318 323 325 327 328 329 330 330 331 331 331 331 332 333 334 334 333 331 329 327 325 324 324 324 323 323 324 322 322 324 325 324 323 321 323 324 320 319
313 311 306 305 306 300 304 305 304 310 313 316 319 323 325 326 325 328 328 328 329 330 330 330 329 331 331 331 330 328 326 324 322 323 322 319 319 320 321 322 322 324 324 321 321 319 321 322 320
311 308 301 298 297 297 306 304 307 312 314 316 317 319 321 322 324 321 324 325 326 326 326 326 326 327 329 328 326 326 326 326 324 323 320 319 317 316 319 322 322 321 323 322 322 318 317 319 317
307 309 302 294 295 298 305 300 307 313 316 317 318 318 319 320 321 322 323 324 323 321 325 325 324 325 327 325 324 325 325 323 322 322 319 318 318 317 320 321 322 322 322 322 322 318 316 317 316
307 305 307 301 297 296 299 303 309 313 315 315 314 314 316 318 320 320 322 323 323 323 325 323 322 323 323 322 322 322 324 322 321 321 320 317 320 318 318 320 320 321 321 322 322 317 316 319 318
309 308 301 301 293 291 296 299 301 308 312 315 314 314 316 317 318 317 319 320 323 324 322 317 318 319 318 317 320 320 318 319 318 315 315 318 319 318 317 318 319 320 320 321 321 319 318 318 319
306 305 302 302 300 294 293 297 308 310 312 313 316 316 315 315 317 318 317 316 312 314 313 313 314 314 315 315 315 316 316 316 316 315 316 317 317 317 317 317 318 319 317 318 318 320 320 319 317
308 305 303 299 296 298 297 298 309 311 311 311 313 316 316 316 316 314 309 309 309 310 312 313 314 313 313 315 316 314 313 313 313 313 316 316 315 316 317 318 317 314 313 318 318 319 318 319 318
Wind_Speed
10 6 2 2 1 3 5 4 0 6 3 2 2 1 2 6 3 2 7 5 10 9 9 10 13 12 12 12 12 11 12 11 12 12 13 12 12 12 12 13 13 13 12 12 13 14 14 12 11
6 4 2 2 3 4 4 2 4 5 7 9 7 4 3 4 3 8 9 8 10 10 8 9 12 12 12 11 11 10 10 10 10 11 11 11 11 11 11 12 12 12 11 11 10 11 12 11 11
2 1 1 3 3 4 5 2 9 10 6 1 4 4 2 3 4 11 6 10 11 9 8 9 11 10 10 10 9 9 8 8 9 8 9 9 9 9 9 10 10 12 11 11 10 9 9 10 10
2 3 3 5 9 3 3 7 11 8 4 4 6 7 5 4 7 5 12 11 10 9 8 10 9 9 9 9 8 7 6 7 7 7 7 7 7 7 8 8 9 10 11 11 11 10 9 9 9
2 0 5 5 5 2 1 9 7 4 3 4 0 5 5 3 6 12 12 10 10 9 8 10 9 8 8 7 6 6 6 6 6 6 6 5 5 5 5 6 7 8 8 9 10 9 8 9 9
2 1 4 5 3 3 5 7 4 2 3 4 4 5 4 5 9 11 11 11 10 10 8 8 9 8 8 7 6 6 6 5 6 6 5 5 4 5 6 6 7 9 7 9 9 8 8 7 7
3 2 4 5 4 2 3 7 2 2 5 3 7 4 4 6 10 11 11 10 8 8 8 7 7 7 8 7 6 6 5 5 5 4 6 8 6 5 7 5 8 11 6 8 9 9 10 7 6
2 2 4 2 4 3 7 7 5 2 2 8 2 4 6 9 12 10 9 8 8 8 7 6 5 5 5 6 3 5 6 6 5 4 5 5 5 6 6 2 6 8 5 6 7 8 9 10 9
1 2 4 5 6 5 10 7 3 2 7 3 1 2 4 18 14 10 9 8 7 6 6 5 5 5 5 5 4 2 2 5 5 4 4 2 4 4 4 6 6 7 6 5 6 8 8 7 4
1 2 7 4 4 6 13 10 10 5 5 4 4 3 14 19 16 14 12 11 11 9 7 5 4 4 6 2 1 1 4 2 1 2 1 0 2 3 5 5 5 6 7 3 5 6 5 5 5
2 2 1 3 5 4 12 8 7 5 6 7 9 13 17 17 16 14 13 13 12 10 5 6 4 3 3 4 2 2 2 2 1 2 3 2 2 1 2 3 3 3 2 2 3 4 4 6 4
2 0 1 5 2 7 12 10 6 10 1 4 6 15 19 19 17 15 14 11 10 9 7 6 5 4 4 2 1 1 1 1 1 1 3 3 3 3 3 3 3 2 2 3 3 3 4 5 4
1 1 1 2 2 7 10 8 5 10 1 3 12 16 17 17 15 12 10 10 10 10 9 8 6 5 2 3 2 1 0 1 1 2 3 4 4 4 4 4 4 4 3 4 4 4 4 3 4
1 2 3 2 7 8 9 5 3 6 7 9 13 15 15 17 16 12 10 11 11 9 10 9 8 5 4 1 1 2 2 2 3 4 4 5 5 5 5 5 5 4 4 4 4 5 5 5 5
2 4 4 8 8 5 6 8 15 7 11 12 12 12 14 14 14 15 14 14 12 10 8 9 5 4 3 3 4 4 4 4 4 4 5 6 6 7 7 6 6 5 4 5 5 5 5 5 5
1 0 4 3 9 5 9 17 10 14 15 14 13 11 12 14 16 14 10 10 10 10 10 9 7 7 7 6 6 5 5 5 5 5 5 7 6 7 9 7 7 5 4 5 5 6 6 5 6
1 7 7 4 12 7 13 13 2 11 13 14 14 13 13 13 14 13 13 11 10 10 10 10 9 9 9 7 6 6 5 5 4 6 7 6 6 6 9 7 8 6 5 5 6 6 6 6 7
6 8 6 10 5 10 12 20 2 10 13 13 13 13 13 13 17 14 13 11 10 9 10 10 9 10 9 7 6 6 6 5 5 6 6 7 6 7 8 7 9 7 7 7 6 7 6 7 7
8 8 13 4 4 9 14 17 11 11 14 13 13 13 14 15 13 13 13 12 11 10 11 11 10 10 7 6 6 5 5 4 5 4 6 5 6 9 7 7 7 8 8 8 7 7 8 8 5
8 7 8 2 2 10 3 14 10 11 15 16 15 14 15 14 12 11 12 11 12 13 13 11 12 10 7 4 3 4 4 4 6 5 6 6 6 6 7 8 6 9 9 8 9 8 7 7 5
6 8 9 5 6 2 2 8 6 6 13 14 17 14 13 14 13 12 11 11 11 12 11 10 9 7 5 5 3 4 3 4 4 3 4 4 6 8 7 8 7 10 8 9 9 9 9 8 5
13 6 10 5 6 7 2 5 4 5 11 16 17 18 16 14 13 12 9 9 11 10 8 6 6 5 4 4 5 6 4 4 2 4 4 6 6 7 8 8 9 10 9 10 7 7 9 8 8
13 1 2 5 4 3 6 4 3 3 8 15 16 17 17 13 12 12 8 9 8 5 5 4 5 4 5 6 7 6 6 4 4 4 6 5 6 6 7 8 9 10 8 9 10 11 10 7 6
4 3 3 3 2 6 3 6 4 4 3 3 4 12 13 13 11 9 4 6 7 8 9 9 6 7 7 8 8 7 7 6 5 6 6 6 6 7 8 8 8 8 9 8 8 7 10 8 8
2 2 5 5 4 9 4 5 9 4 6 8 7 7 8 6 7 9 11 9 9 10 8 6 7 8 8 6 6 6 7 7 8 7 6 8 7 7 9 10 8 7 8 9 7 6 6 8 6
3 3 4 9 10 12 3 6 2 1 6 5 4 5 6 7 7 8 8 9 9 6 6 8 8 8 8 6 6 6 7 5 5 6 6 7 7 8 10 10 10 11 11 9 8 5 4 11 9
3 4 3 3 2 5 2 4 7 2 6 4 4 6 9 8 7 5 5 8 11 7 10 9 7 7 6 6 6 8 6 6 7 8 7 8 9 8 10 11 12 11 11 11 12 10 11 12 10
1 4 3 1 5 5 2 4 5 6 7 7 8 11 9 6 5 5 7 5 6 7 3 5 5 6 6 6 5 5 6 7 7 7 8 10 10 10 11 12 12 12 12 12 12 9 12 10 9
2 2 2 1 3 4 5 4 5 9 8 7 9 8 6 6 6 6 5 2 5 5 4 5 5 5 4 4 5 5 7 9 9 9 10 9 9 10 11 12 13 13 12 11 10 12 12 14 9
1 1 1 3 1 0 2 3 4 8 9 8 8 7 7 5 5 0 4 5 2 3 3 3 3 4 5 5 6 7 8 8 9 10 10 9 10 10 12 12 12 12 11 10 10 13 12 13 10
Wind_Direction
134 151 137 224 221 78 94 100 181 83 104 29 50 256 67 35 356 32 132 129 127 111 107 114 101 98 97 90 80 76 70 71 71 68 64 60 59 59 55 52 50 40 33 33 24 23 32 24 20
140 160 173 130 82 91 84 79 71 66 119 117 91 97 65 81 63 115 136 143 117 112 108 103 102 99 96 93 91 85 81 75 67 67 64 59 56 52 46 44 39 36 30 26 23 15 12 15 15
179 335 296 61 65 75 93 105 113 112 139 157 114 51 71 75 85 138 118 141 127 118 116 106 101 100 97 94 88 86 79 73 71 64 61 53 48 51 51 56 44 39 29 19 12 10 2 2 5
330 166 103 74 81 59 64 130 132 137 124 93 117 97 99 26 137 146 149 146 137 127 122 112 108 108 102 93 87 84 78 72 64 63 57 54 52 48 47 46 38 35 32 30 24 16 1 354 353
43 115 71 80 64 57 48 143 151 117 92 102 151 118 97 72 109 134 145 151 141 130 131 123 119 115 103 91 83 80 72 68 61 51 47 41 42 34 29 26 17 15 18 18 20 14 9 6 359
125 336 94 90 73 73 94 147 141 64 112 137 120 118 97 118 141 148 152 147 142 140 136 133 131 126 116 110 107 91 84 82 74 75 59 26 9 2 356 355 360 348 353 359 359 355 351 350 2
50 40 85 113 92 116 139 155 198 156 154 160 138 105 100 160 159 154 148 141 143 143 143 144 143 141 142 136 129 123 115 111 106 77 52 36 30 19 360 3 2 342 4 352 355 24 13 2 11
68 87 130 142 156 132 150 168 147 170 110 125 136 167 160 177 162 148 145 144 151 151 153 156 164 166 183 155 130 152 148 145 131 90 70 42 32 28 39 14 20 9 13 9 34 27 31 35 28
135 166 168 169 172 143 164 176 143 109 148 135 141 122 123 147 154 150 153 154 159 168 169 182 197 202 197 192 170 177 175 159 124 120 91 77 34 14 348 18 1 358 346 344 19 14 12 6 3
209 206 181 169 157 174 177 186 171 183 164 180 175 107 141 152 163 168 174 173 180 184 191 198 191 185 176 156 72 108 188 162 127 106 109 13 13 338 334 329 335 343 346 10 19 16 1 334 338
141 327 173 203 209 202 177 181 173 182 206 211 206 162 162 164 174 177 182 185 186 190 198 189 144 120 153 153 178 110 134 169 216 237 237 250 268 280 296 317 323 316 342 320 340 342 343 345 331
251 173 155 17 302 176 185 154 197 213 196 309 215 168 167 177 180 183 187 189 189 198 213 189 182 163 188 152 79 103 148 169 211 190 250 249 255 254 283 302 318 293 324 309 318 327 334 325 329
255 60 341 359 184 179 154 191 214 222 252 129 150 162 180 183 186 190 192 196 203 211 205 200 191 188 160 217 149 239 44 251 281 253 262 249 255 267 273 282 289 298 294 291 298 312 320 304 304
117 208 213 163 160 161 182 168 204 201 162 166 170 178 184 186 191 191 201 208 212 205 201 197 197 191 198 245 306 298 263 254 243 253 265 266 251 248 261 262 272 282 281 289 291 297 299 302 294
152 233 241 184 177 166 168 215 224 176 172 182 186 184 189 202 196 206 205 212 207 206 199 198 187 194 225 251 265 272 264 260 251 263 272 276 264 263 255 255 259 263 266 270 268 277 271 269 270
356 239 267 140 170 172 205 261 206 168 174 192 194 195 207 216 214 217 211 211 207 208 206 199 209 216 231 236 245 258 268 271 274 284 273 274 261 265 260 248 256 265 258 262 269 284 284 275 283
244 268 235 277 208 158 206 265 127 175 188 195 201 200 211 224 231 225 219 210 207 209 211 217 216 234 242 244 254 266 281 269 285 286 283 288 272 255 254 250 258 253 259 258 266 266 268 282 288
277 251 258 249 193 214 207 251 162 186 202 206 210 207 218 215 226 229 224 219 218 218 225 230 238 241 248 258 258 270 278 270 253 270 279 282 278 269 250 252 255 245 251 259 257 263 262 275 288
289 261 256 267 191 205 234 260 265 206 212 216 220 215 223 221 224 228 228 224 224 230 230 228 234 234 233 246 267 273 279 289 279 282 288 289 278 278 269 268 259 244 245 259 260 263 262 271 274
259 258 260 211 163 216 246 272 266 219 219 219 221 223 229 231 222 218 208 206 212 219 224 222 226 232 228 225 244 266 300 302 302 305 295 287 290 297 297 284 269 259 260 249 248 238 260 264 261
275 241 256 274 144 182 300 280 249 225 228 224 228 237 238 239 237 231 211 202 206 211 211 223 231 230 227 217 242 250 267 258 268 282 305 326 314 307 301 288 256 263 252 259 253 239 232 264 257
302 244 245 179 199 288 245 282 264 246 247 232 230 229 235 239 239 244 226 215 217 219 210 214 232 227 232 202 217 232 261 286 308 295 301 312 326 318 314 304 283 266 257 241 252 248 245 233 256
282 25 218 169 192 242 184 236 255 268 260 245 233 228 229 237 240 241 235 233 225 221 205 202 214 221 225 208 221 229 244 248 288 287 296 294 293 298 310 317 306 282 259 249 251 247 228 219 257
140 127 85 90 154 256 274 219 259 231 258 316 266 227 227 239 238 233 223 181 165 158 165 169 184 218 211 216 223 242 260 278 286 294 304 318 327 325 324 319 310 296 280 257 251 254 252 227 230
174 245 273 256 243 290 133 202 267 300 302 285 314 210 200 194 176 166 172 162 147 167 166 169 197 230 228 236 247 257 271 279 285 299 305 309 311 316 314 315 302 300 284 261 251 231 255 252 238
160 201 261 294 293 312 154 236 272 274 313 259 267 223 174 176 181 186 165 151 153 163 225 199 213 243 246 266 273 276 286 287 291 307 312 302 301 307 304 299 296 291 284 270 225 217 172 256 243
121 218 18 285 98 251 12 266 259 271 239 226 195 187 196 191 186 189 181 179 182 194 217 236 248 268 298 301 311 311 320 312 307 310 306 301 300 303 304 305 304 295 286 266 231 237 238 234 236
325 94 259 212 278 291 185 289 285 290 256 219 212 211 203 191 181 190 212 208 183 236 246 302 290 296 324 317 310 318 318 324 318 315 307 305 301 303 306 306 299 292 289 273 240 226 230 235 238
194 223 67 319 287 303 322 306 350 331 346 310 268 237 213 197 199 217 240 9 3 327 308 314 311 312 324 326 328 329 330 333 328 313 303 295 301 306 307 306 300 297 294 269 237 230 233 224 231
206 69 140 292 264 58 307 297 345 333 330 307 293 256 189 191 219 323 56 38 356 282 345 339 336 338 359 351 345 345 337 333 325 317 305 298 302 307 308 307 310 299 285 258 232 230 224 224 223